Time,TemperatureF,DewpointF,PressureIn,WindDirection,WindDirectionDegrees,WindSpeedMPH,WindSpeedGustMPH,Humidity,HourlyPrecipIn,Conditions,Clouds,dailyrainin,SolarRadiationWatts/m^2,SoftwareType,DateUTC
2013-10-11 00:00:00,52.8,52.5,30.01,NE,46,0.0,0.0,99,0.07,,CLR,0.01,0.00,VWS V14.01,2013-10-11 04:00:00,
2013-10-11 00:01:00,52.8,52.5,30.01,NE,46,0.0,1.0,99,0.07,,CLR,0.01,0.00,VWS V14.01,2013-10-11 04:01:00,
2013-10-11 00:02:00,52.8,52.5,30.01,NNW,338,0.0,3.0,99,0.07,,CLR,0.01,0.00,VWS V14.01,2013-10-11 04:02:00,
2013-10-11 00:03:00,52.8,52.5,30.01,NNW,339,0.0,3.0,99,0.07,,CLR,0.01,0.00,VWS V14.01,2013-10-11 04:03:00,
2013-10-11 00:04:00,52.8,52.5,30.01,NNW,339,0.0,3.0,99,0.08,,CLR,0.02,0.00,VWS V14.01,2013-10-11 04:04:00,
2013-10-11 00:09:00,52.8,52.5,30.01,North,5,2.0,2.0,99,0.08,,CLR,0.03,0.00,VWS V14.01,2013-10-11 04:09:00,
2013-10-11 00:14:00,52.8,52.5,30.01,North,5,0.0,2.0,99,0.08,,CLR,0.04,0.00,VWS V14.01,2013-10-11 04:14:00,
2013-10-11 00:19:00,52.8,52.5,30.00,North,5,0.0,0.0,99,0.08,,CLR,0.04,0.00,VWS V14.01,2013-10-11 04:19:00,
2013-10-11 00:24:00,52.8,52.5,30.00,North,5,0.0,0.0,99,0.08,,CLR,0.05,0.00,VWS V14.01,2013-10-11 04:24:00,
2013-10-11 00:29:00,52.8,52.5,30.00,North,5,0.0,0.0,99,0.08,,CLR,0.05,0.00,VWS V14.01,2013-10-11 04:29:00,
2013-10-11 00:34:00,52.8,52.5,30.00,North,360,0.0,1.0,99,0.09,,CLR,0.06,0.00,VWS V14.01,2013-10-11 04:34:00,
2013-10-11 00:39:00,52.9,52.6,30.00,North,5,0.0,0.0,99,0.09,,CLR,0.06,0.00,VWS V14.01,2013-10-11 04:39:00,
2013-10-11 00:45:00,52.9,52.6,30.00,North,5,0.0,0.0,99,0.08,,CLR,0.06,0.00,VWS V14.01,2013-10-11 04:45:00,
2013-10-11 00:50:00,52.9,52.6,30.00,North,360,0.0,0.0,99,0.08,,CLR,0.06,0.00,VWS V14.01,2013-10-11 04:50:00,
2013-10-11 00:55:00,52.9,52.6,29.99,North,5,0.0,0.0,99,0.07,,CLR,0.06,0.00,VWS V14.01,2013-10-11 04:55:00,
2013-10-11 01:00:00,52.9,52.6,29.99,North,9,0.0,0.0,99,0.07,,CLR,0.07,0.00,VWS V14.01,2013-10-11 05:00:00,
2013-10-11 01:05:00,53.0,52.7,29.99,NNE,18,0.0,2.0,99,0.05,,CLR,0.07,0.00,VWS V14.01,2013-10-11 05:05:00,
2013-10-11 01:10:00,53.0,52.7,29.99,NNE,21,2.0,2.0,99,0.04,,CLR,0.07,0.00,VWS V14.01,2013-10-11 05:10:00,
2013-10-11 01:16:00,53.1,52.8,29.99,NNE,21,0.0,1.0,99,0.03,,CLR,0.07,0.00,VWS V14.01,2013-10-11 05:16:00,
2013-10-11 01:21:00,53.1,52.8,29.99,North,5,0.0,1.0,99,0.03,,CLR,0.07,0.00,VWS V14.01,2013-10-11 05:21:00,
2013-10-11 01:26:00,53.1,52.8,29.99,North,5,1.0,3.0,99,0.02,,CLR,0.07,0.00,VWS V14.01,2013-10-11 05:26:00,
2013-10-11 01:31:00,53.2,52.9,29.99,North,360,0.0,3.0,99,0.02,,CLR,0.07,0.00,VWS V14.01,2013-10-11 05:31:00,
2013-10-11 01:36:00,53.2,52.9,29.99,NNW,336,2.0,2.0,99,0.02,,CLR,0.08,0.00,VWS V14.01,2013-10-11 05:36:00,
2013-10-11 01:41:00,53.2,52.9,29.99,North,355,1.0,1.0,99,0.02,,CLR,0.08,0.00,VWS V14.01,2013-10-11 05:41:00,
2013-10-11 01:46:00,53.3,53.0,29.98,North,349,3.0,4.0,99,0.02,,CLR,0.08,0.00,VWS V14.01,2013-10-11 05:46:00,
2013-10-11 01:52:00,53.3,53.0,29.98,NNW,331,4.0,6.0,99,0.02,,CLR,0.08,0.00,VWS V14.01,2013-10-11 05:52:00,
2013-10-11 01:57:00,53.3,53.0,29.98,North,355,0.0,5.0,99,0.02,,CLR,0.08,0.00,VWS V14.01,2013-10-11 05:57:00,
2013-10-11 02:02:00,53.3,53.0,29.98,NNW,340,3.0,5.0,99,0.01,,CLR,0.08,0.00,VWS V14.01,2013-10-11 06:02:00,
2013-10-11 02:07:00,53.3,53.0,29.98,North,11,1.0,3.0,99,0.01,,CLR,0.08,0.00,VWS V14.01,2013-10-11 06:07:00,
2013-10-11 02:12:00,53.4,53.1,29.98,NNW,344,3.0,5.0,99,0.01,,CLR,0.08,0.00,VWS V14.01,2013-10-11 06:12:00,
2013-10-11 02:17:00,53.4,53.1,29.98,NNW,348,4.0,6.0,99,0.01,,CLR,0.08,0.00,VWS V14.01,2013-10-11 06:17:00,
2013-10-11 02:22:00,53.5,53.2,29.98,North,351,3.0,5.0,99,0.01,,CLR,0.08,0.00,VWS V14.01,2013-10-11 06:22:00,
2013-10-11 02:27:00,53.5,53.2,29.98,NNE,17,2.0,5.0,99,0.01,,CLR,0.08,0.00,VWS V14.01,2013-10-11 06:27:00,
2013-10-11 02:33:00,53.6,53.3,29.98,North,11,3.0,6.0,99,0.02,,CLR,0.09,0.00,VWS V14.01,2013-10-11 06:33:00,
2013-10-11 02:38:00,53.7,53.4,29.98,North,11,0.0,5.0,99,0.01,,CLR,0.09,0.00,VWS V14.01,2013-10-11 06:38:00,
2013-10-11 02:43:00,53.8,53.5,29.98,North,350,0.0,5.0,99,0.01,,CLR,0.09,0.00,VWS V14.01,2013-10-11 06:43:00,
2013-10-11 02:48:00,53.8,53.5,29.98,North,355,1.0,5.0,99,0.01,,CLR,0.09,0.00,VWS V14.01,2013-10-11 06:48:00,
2013-10-11 02:53:00,53.9,53.6,29.98,North,355,0.0,4.0,99,0.01,,CLR,0.09,0.00,VWS V14.01,2013-10-11 06:53:00,
2013-10-11 02:58:00,53.9,53.6,29.97,North,5,0.0,3.0,99,0.01,,CLR,0.09,0.00,VWS V14.01,2013-10-11 06:58:00,
2013-10-11 03:03:00,54.0,53.7,29.97,North,360,2.0,5.0,99,0.02,,CLR,0.10,0.00,VWS V14.01,2013-10-11 07:03:00,
2013-10-11 03:08:00,54.0,53.7,29.97,North,11,4.0,4.0,99,0.02,,CLR,0.10,0.00,VWS V14.01,2013-10-11 07:08:00,
2013-10-11 03:14:00,54.0,53.7,29.97,North,9,0.0,5.0,99,0.02,,CLR,0.10,0.00,VWS V14.01,2013-10-11 07:14:00,
2013-10-11 03:19:00,54.0,53.7,29.97,NNE,21,0.0,3.0,99,0.02,,CLR,0.10,0.00,VWS V14.01,2013-10-11 07:19:00,
2013-10-11 03:24:00,54.1,53.8,29.97,NNE,19,0.0,0.0,99,0.02,,CLR,0.10,0.00,VWS V14.01,2013-10-11 07:24:00,
2013-10-11 03:29:00,54.1,53.8,29.97,NNE,17,1.0,1.0,99,0.02,,CLR,0.10,0.00,VWS V14.01,2013-10-11 07:29:00,
2013-10-11 03:34:00,54.2,53.9,29.97,NNE,21,0.0,0.0,99,0.01,,CLR,0.10,0.00,VWS V14.01,2013-10-11 07:34:00,
2013-10-11 03:39:00,54.2,53.9,29.97,NNW,343,0.0,3.0,99,0.02,,CLR,0.11,0.00,VWS V14.01,2013-10-11 07:39:00,
2013-10-11 03:44:00,54.2,53.9,29.96,NNW,327,5.0,5.0,99,0.02,,CLR,0.11,0.00,VWS V14.01,2013-10-11 07:44:00,
2013-10-11 03:49:00,54.3,54.0,29.97,NNW,335,4.0,4.0,99,0.02,,CLR,0.11,0.00,VWS V14.01,2013-10-11 07:49:00,
2013-10-11 03:54:00,54.3,54.0,29.96,NNE,19,0.0,8.0,99,0.02,,CLR,0.11,0.00,VWS V14.01,2013-10-11 07:54:00,
2013-10-11 03:59:00,54.3,54.0,29.96,NNW,331,5.0,5.0,99,0.02,,CLR,0.11,0.00,VWS V14.01,2013-10-11 07:59:00,
2013-10-11 04:05:00,54.3,54.0,29.96,North,355,6.0,6.0,99,0.01,,CLR,0.11,0.00,VWS V14.01,2013-10-11 08:05:00,
2013-10-11 04:10:00,54.3,54.0,29.96,North,351,2.0,6.0,99,0.01,,CLR,0.11,0.00,VWS V14.01,2013-10-11 08:10:00,
2013-10-11 04:15:00,54.3,54.0,29.96,NNW,346,4.0,5.0,99,0.01,,CLR,0.11,0.00,VWS V14.01,2013-10-11 08:15:00,
2013-10-11 04:20:00,54.3,54.0,29.96,North,360,3.0,6.0,99,0.01,,CLR,0.11,0.00,VWS V14.01,2013-10-11 08:20:00,
2013-10-11 04:25:00,54.4,54.1,29.96,NNW,346,6.0,6.0,99,0.01,,CLR,0.11,0.00,VWS V14.01,2013-10-11 08:25:00,
2013-10-11 04:30:00,54.3,54.0,29.96,North,355,4.0,5.0,99,0.01,,CLR,0.11,0.00,VWS V14.01,2013-10-11 08:30:00,
2013-10-11 04:35:00,54.4,54.1,29.97,NNW,338,3.0,5.0,99,0.01,,CLR,0.11,0.00,VWS V14.01,2013-10-11 08:35:00,
2013-10-11 04:40:00,54.4,54.1,29.96,North,355,0.0,4.0,99,0.00,,CLR,0.11,0.00,VWS V14.01,2013-10-11 08:40:00,
2013-10-11 04:45:00,54.4,54.1,29.97,North,10,0.0,1.0,99,0.00,,CLR,0.11,0.00,VWS V14.01,2013-10-11 08:45:00,
2013-10-11 04:50:00,54.4,54.1,29.96,North,5,0.0,4.0,99,0.00,,CLR,0.11,0.00,VWS V14.01,2013-10-11 08:50:00,
2013-10-11 04:55:00,54.4,54.1,29.96,NNE,23,0.0,1.0,99,0.00,,CLR,0.11,0.00,VWS V14.01,2013-10-11 08:55:00,
2013-10-11 05:01:00,54.5,54.2,29.97,NE,38,0.0,3.0,99,0.00,,CLR,0.11,0.00,VWS V14.01,2013-10-11 09:01:00,
2013-10-11 05:06:00,54.5,54.2,29.97,NNE,31,0.0,1.0,99,0.00,,CLR,0.11,0.00,VWS V14.01,2013-10-11 09:06:00,
2013-10-11 05:11:00,54.5,54.2,29.96,North,10,1.0,5.0,99,0.00,,CLR,0.11,0.00,VWS V14.01,2013-10-11 09:11:00,
2013-10-11 05:16:00,54.5,54.2,29.96,North,360,2.0,5.0,99,0.00,,CLR,0.11,0.00,VWS V14.01,2013-10-11 09:16:00,
2013-10-11 05:21:00,54.5,54.2,29.96,NNW,334,2.0,5.0,99,0.00,,CLR,0.11,0.00,VWS V14.01,2013-10-11 09:21:00,
2013-10-11 05:26:00,54.6,54.3,29.97,North,5,0.0,3.0,99,0.00,,CLR,0.11,0.00,VWS V14.01,2013-10-11 09:26:00,
2013-10-11 05:31:00,54.6,54.3,29.97,NNE,18,0.0,3.0,99,0.00,,CLR,0.11,0.00,VWS V14.01,2013-10-11 09:31:00,
2013-10-11 05:36:00,54.5,54.2,29.97,NNE,18,4.0,5.0,99,0.00,,CLR,0.11,0.00,VWS V14.01,2013-10-11 09:36:00,
2013-10-11 05:41:00,54.5,54.2,29.97,North,360,0.0,7.0,99,0.00,,CLR,0.11,0.00,VWS V14.01,2013-10-11 09:41:00,
2013-10-11 05:46:00,54.5,54.2,29.97,North,355,3.0,6.0,99,0.00,,CLR,0.11,0.00,VWS V14.01,2013-10-11 09:46:00,
2013-10-11 05:51:00,54.5,54.2,29.97,North,355,3.0,6.0,99,0.00,,CLR,0.11,0.00,VWS V14.01,2013-10-11 09:51:00,
2013-10-11 05:56:00,54.6,54.3,29.97,North,5,3.0,4.0,99,0.00,,CLR,0.11,0.00,VWS V14.01,2013-10-11 09:56:00,
2013-10-11 06:02:00,54.5,54.2,29.97,NNE,14,0.0,4.0,99,0.01,,CLR,0.12,0.00,VWS V14.01,2013-10-11 10:02:00,
2013-10-11 06:07:00,54.5,54.2,29.97,NNE,14,0.0,6.0,99,0.01,,CLR,0.12,0.00,VWS V14.01,2013-10-11 10:07:00,
2013-10-11 06:12:00,54.5,54.2,29.97,North,360,0.0,7.0,99,0.01,,CLR,0.12,0.00,VWS V14.01,2013-10-11 10:12:00,
2013-10-11 06:17:00,54.5,54.2,29.97,North,355,4.0,7.0,99,0.01,,CLR,0.12,0.00,VWS V14.01,2013-10-11 10:17:00,
2013-10-11 06:22:00,54.5,54.2,29.97,North,11,3.0,7.0,99,0.01,,CLR,0.12,0.00,VWS V14.01,2013-10-11 10:22:00,
2013-10-11 06:27:00,54.5,54.2,29.97,North,10,3.0,5.0,99,0.01,,CLR,0.12,0.00,VWS V14.01,2013-10-11 10:27:00,
2013-10-11 06:32:00,54.5,54.2,29.97,NNE,18,3.0,7.0,99,0.01,,CLR,0.12,0.00,VWS V14.01,2013-10-11 10:32:00,
2013-10-11 06:37:00,54.5,54.2,29.97,NNW,348,6.0,6.0,99,0.01,,CLR,0.12,0.00,VWS V14.01,2013-10-11 10:37:00,
2013-10-11 06:42:00,54.5,54.2,29.97,North,11,1.0,5.0,99,0.01,,CLR,0.12,0.00,VWS V14.01,2013-10-11 10:42:00,
2013-10-11 06:47:00,54.5,54.2,29.97,NNW,340,4.0,6.0,99,0.01,,CLR,0.12,0.00,VWS V14.01,2013-10-11 10:47:00,
2013-10-11 06:52:00,54.6,54.3,29.97,North,360,0.0,5.0,99,0.01,,CLR,0.12,0.00,VWS V14.01,2013-10-11 10:52:00,
2013-10-11 06:57:00,54.6,54.3,29.97,NNW,337,2.0,6.0,99,0.01,,CLR,0.12,0.00,VWS V14.01,2013-10-11 10:57:00,
2013-10-11 07:02:00,54.6,54.6,29.97,NNW,338,4.0,8.0,100,0.01,,CLR,0.13,0.00,VWS V14.01,2013-10-11 11:02:00,
2013-10-11 07:07:00,54.6,54.6,29.97,NNE,13,2.0,7.0,100,0.01,,CLR,0.13,0.00,VWS V14.01,2013-10-11 11:07:00,
2013-10-11 07:13:00,54.6,54.6,29.97,NNW,348,4.0,5.0,100,0.01,,CLR,0.13,0.00,VWS V14.01,2013-10-11 11:13:00,
2013-10-11 07:18:00,54.6,54.6,29.97,NNW,344,3.0,5.0,100,0.01,,CLR,0.13,0.00,VWS V14.01,2013-10-11 11:18:00,
2013-10-11 07:23:00,54.6,54.6,29.97,North,360,3.0,6.0,100,0.01,,CLR,0.13,0.00,VWS V14.01,2013-10-11 11:23:00,
2013-10-11 07:28:00,54.6,54.6,29.98,North,360,0.0,3.0,100,0.01,,CLR,0.13,0.00,VWS V14.01,2013-10-11 11:28:00,
2013-10-11 07:33:00,54.7,54.7,29.98,North,5,4.0,6.0,100,0.02,,CLR,0.14,0.00,VWS V14.01,2013-10-11 11:33:00,
2013-10-11 07:38:00,54.7,54.7,29.98,North,5,0.0,1.0,100,0.02,,CLR,0.14,0.00,VWS V14.01,2013-10-11 11:38:00,
2013-10-11 07:43:00,54.7,54.7,29.97,North,355,0.0,5.0,100,0.02,,CLR,0.14,0.00,VWS V14.01,2013-10-11 11:43:00,
2013-10-11 07:48:00,54.7,54.7,29.98,North,355,4.0,4.0,100,0.02,,CLR,0.14,0.00,VWS V14.01,2013-10-11 11:48:00,
2013-10-11 07:53:00,54.7,54.7,29.98,NNW,346,0.0,5.0,100,0.02,,CLR,0.14,0.00,VWS V14.01,2013-10-11 11:53:00,
2013-10-11 07:58:00,54.7,54.7,29.98,NNE,14,0.0,4.0,100,0.03,,CLR,0.15,0.00,VWS V14.01,2013-10-11 11:58:00,
2013-10-11 08:03:00,54.7,54.7,29.98,NNW,346,3.0,4.0,100,0.04,,CLR,0.16,0.00,VWS V14.01,2013-10-11 12:03:00,
2013-10-11 08:08:00,54.7,54.7,29.98,North,360,0.0,4.0,100,0.03,,CLR,0.16,0.00,VWS V14.01,2013-10-11 12:08:00,
2013-10-11 08:13:00,54.7,54.7,29.98,NNE,13,0.0,5.0,100,0.03,,CLR,0.16,0.00,VWS V14.01,2013-10-11 12:13:00,
2013-10-11 08:18:00,54.7,54.7,29.98,North,360,2.0,4.0,100,0.04,,CLR,0.17,0.00,VWS V14.01,2013-10-11 12:18:00,
2013-10-11 08:24:00,54.7,54.7,29.98,North,360,0.0,3.0,100,0.04,,CLR,0.17,7.00,VWS V14.01,2013-10-11 12:24:00,
2013-10-11 08:29:00,54.8,54.8,29.98,North,360,2.0,3.0,100,0.04,,CLR,0.17,9.00,VWS V14.01,2013-10-11 12:29:00,
2013-10-11 08:34:00,54.8,54.8,29.98,NNE,15,3.0,5.0,100,0.04,,CLR,0.18,11.00,VWS V14.01,2013-10-11 12:34:00,
2013-10-11 08:39:00,54.8,54.8,29.98,North,360,2.0,4.0,100,0.04,,CLR,0.18,12.00,VWS V14.01,2013-10-11 12:39:00,
2013-10-11 08:44:00,54.8,54.8,29.98,NNW,340,0.0,5.0,100,0.05,,CLR,0.19,14.00,VWS V14.01,2013-10-11 12:44:00,
2013-10-11 08:49:00,54.8,54.8,29.98,North,11,2.0,4.0,100,0.05,,CLR,0.19,18.00,VWS V14.01,2013-10-11 12:49:00,
2013-10-11 08:54:00,54.9,54.9,29.98,NNE,13,0.0,5.0,100,0.06,,CLR,0.20,23.00,VWS V14.01,2013-10-11 12:54:00,
2013-10-11 08:59:00,54.9,54.9,29.98,North,10,0.0,4.0,100,0.07,,CLR,0.21,25.00,VWS V14.01,2013-10-11 12:59:00,
2013-10-11 09:04:00,54.9,54.9,29.98,North,11,0.0,0.0,100,0.05,,CLR,0.21,23.00,VWS V14.01,2013-10-11 13:04:00,
2013-10-11 09:09:00,55.0,55.0,29.99,North,360,0.0,3.0,100,0.05,,CLR,0.21,21.00,VWS V14.01,2013-10-11 13:09:00,
2013-10-11 09:14:00,55.0,55.0,29.99,NNE,23,0.0,4.0,100,0.06,,CLR,0.22,19.00,VWS V14.01,2013-10-11 13:14:00,
2013-10-11 09:19:00,55.1,55.1,29.99,NNE,12,0.0,3.0,100,0.05,,CLR,0.22,25.00,VWS V14.01,2013-10-11 13:19:00,
2013-10-11 09:24:00,55.1,55.1,29.99,NNE,17,0.0,3.0,100,0.05,,CLR,0.22,25.00,VWS V14.01,2013-10-11 13:24:00,
2013-10-11 09:30:00,55.1,55.1,29.99,North,10,0.0,2.0,100,0.05,,CLR,0.22,33.00,VWS V14.01,2013-10-11 13:30:00,
2013-10-11 09:35:00,55.2,55.2,29.99,NNE,15,2.0,3.0,100,0.07,,CLR,0.25,35.00,VWS V14.01,2013-10-11 13:35:00,
2013-10-11 09:40:00,55.2,55.2,29.99,North,360,5.0,8.0,100,0.13,,CLR,0.31,39.00,VWS V14.01,2013-10-11 13:40:00,
2013-10-11 09:45:00,55.2,55.2,29.99,North,360,3.0,5.0,100,0.16,,CLR,0.35,39.00,VWS V14.01,2013-10-11 13:45:00,
2013-10-11 09:50:00,55.1,55.1,29.99,North,360,3.0,7.0,100,0.18,,CLR,0.37,40.00,VWS V14.01,2013-10-11 13:50:00,
2013-10-11 09:55:00,55.1,55.1,29.99,NE,34,0.0,1.0,100,0.18,,CLR,0.38,35.00,VWS V14.01,2013-10-11 13:55:00,
2013-10-11 10:00:00,55.2,55.2,29.99,NNE,12,2.0,4.0,100,0.18,,CLR,0.39,44.00,VWS V14.01,2013-10-11 14:00:00,
2013-10-11 10:05:00,55.2,55.2,29.99,NNW,341,4.0,5.0,100,0.20,,CLR,0.41,60.00,VWS V14.01,2013-10-11 14:05:00,
2013-10-11 10:10:00,55.3,55.3,29.99,NNW,333,6.0,6.0,100,0.21,,CLR,0.42,62.00,VWS V14.01,2013-10-11 14:10:00,
2013-10-11 10:15:00,55.3,55.3,29.99,NW,318,5.0,6.0,100,0.21,,CLR,0.43,70.00,VWS V14.01,2013-10-11 14:15:00,
2013-10-11 10:20:00,55.4,55.4,29.99,NNW,342,4.0,7.0,100,0.21,,CLR,0.43,67.00,VWS V14.01,2013-10-11 14:20:00,
2013-10-11 10:25:00,55.4,55.4,29.99,NNW,348,1.0,3.0,100,0.21,,CLR,0.43,63.00,VWS V14.01,2013-10-11 14:25:00,
2013-10-11 10:31:00,55.5,55.5,29.99,North,350,3.0,7.0,100,0.21,,CLR,0.43,60.00,VWS V14.01,2013-10-11 14:31:00,
2013-10-11 10:36:00,55.5,55.5,29.99,North,11,4.0,5.0,100,0.19,,CLR,0.43,65.00,VWS V14.01,2013-10-11 14:36:00,
2013-10-11 10:41:00,55.6,55.6,29.99,NNE,17,0.0,1.0,100,0.14,,CLR,0.43,58.00,VWS V14.01,2013-10-11 14:41:00,
2013-10-11 10:46:00,55.6,55.6,29.99,North,360,2.0,4.0,100,0.08,,CLR,0.43,86.00,VWS V14.01,2013-10-11 14:46:00,
2013-10-11 10:51:00,55.7,55.7,29.99,North,360,3.0,6.0,100,0.06,,CLR,0.43,74.00,VWS V14.01,2013-10-11 14:51:00,
2013-10-11 10:56:00,55.8,55.8,29.99,NNE,17,0.0,0.0,100,0.05,,CLR,0.43,60.00,VWS V14.01,2013-10-11 14:56:00,
2013-10-11 11:01:00,55.9,55.9,29.99,NNW,334,5.0,5.0,100,0.04,,CLR,0.43,63.00,VWS V14.01,2013-10-11 15:01:00,
2013-10-11 11:06:00,55.9,55.9,29.99,North,360,0.0,5.0,100,0.03,,CLR,0.43,62.00,VWS V14.01,2013-10-11 15:06:00,
2013-10-11 11:11:00,55.9,55.9,29.99,NNW,346,3.0,7.0,100,0.03,,CLR,0.44,58.00,VWS V14.01,2013-10-11 15:11:00,
2013-10-11 11:16:00,55.9,55.9,29.99,NNW,327,2.0,5.0,100,0.02,,CLR,0.44,72.00,VWS V14.01,2013-10-11 15:16:00,
2013-10-11 11:21:00,55.9,55.9,29.99,North,10,0.0,4.0,100,0.01,,CLR,0.44,81.00,VWS V14.01,2013-10-11 15:21:00,
2013-10-11 11:26:00,56.0,56.0,29.99,North,355,3.0,5.0,100,0.01,,CLR,0.44,70.00,VWS V14.01,2013-10-11 15:26:00,
2013-10-11 11:32:00,56.1,56.1,29.99,NNE,22,7.0,8.0,100,0.01,,CLR,0.44,79.00,VWS V14.01,2013-10-11 15:32:00,
2013-10-11 11:37:00,56.0,56.0,29.99,NNE,12,0.0,6.0,100,0.01,,CLR,0.44,88.00,VWS V14.01,2013-10-11 15:37:00,
2013-10-11 11:42:00,56.1,56.1,29.99,North,350,0.0,6.0,100,0.01,,CLR,0.44,107.00,VWS V14.01,2013-10-11 15:42:00,
2013-10-11 11:47:00,56.2,56.2,29.99,NNW,345,4.0,7.0,100,0.01,,CLR,0.44,97.00,VWS V14.01,2013-10-11 15:47:00,
2013-10-11 11:52:00,56.3,56.3,29.98,NNE,18,2.0,4.0,100,0.01,,CLR,0.44,111.00,VWS V14.01,2013-10-11 15:52:00,
2013-10-11 11:57:00,56.4,56.4,29.98,NNW,340,5.0,6.0,100,0.01,,CLR,0.44,107.00,VWS V14.01,2013-10-11 15:57:00,
2013-10-11 12:02:00,56.4,56.4,29.99,East,86,0.0,5.0,100,0.02,,CLR,0.45,97.00,VWS V14.01,2013-10-11 16:02:00,
2013-10-11 12:07:00,56.4,56.4,29.99,NNW,333,4.0,10.0,100,0.03,,CLR,0.46,81.00,VWS V14.01,2013-10-11 16:07:00,
2013-10-11 12:12:00,56.4,56.4,29.99,NNW,341,4.0,9.0,100,0.03,,CLR,0.46,77.00,VWS V14.01,2013-10-11 16:12:00,
2013-10-11 12:17:00,56.3,56.3,29.99,North,5,3.0,10.0,100,0.02,,CLR,0.46,90.00,VWS V14.01,2013-10-11 16:17:00,
2013-10-11 12:22:00,56.4,56.4,29.99,NNE,19,0.0,10.0,100,0.03,,CLR,0.47,90.00,VWS V14.01,2013-10-11 16:22:00,
2013-10-11 12:27:00,56.4,56.4,29.99,North,360,2.0,5.0,100,0.03,,CLR,0.47,107.00,VWS V14.01,2013-10-11 16:27:00,
2013-10-11 12:33:00,56.5,56.5,29.99,NNE,21,5.0,7.0,100,0.03,,CLR,0.47,128.00,VWS V14.01,2013-10-11 16:33:00,
2013-10-11 12:38:00,56.6,56.6,29.99,NNE,29,0.0,8.0,100,0.03,,CLR,0.47,160.00,VWS V14.01,2013-10-11 16:38:00,
2013-10-11 12:43:00,56.7,56.7,29.99,NNW,339,2.0,5.0,100,0.03,,CLR,0.47,141.00,VWS V14.01,2013-10-11 16:43:00,
2013-10-11 12:48:00,56.8,56.8,29.98,North,360,0.0,5.0,100,0.03,,CLR,0.47,167.00,VWS V14.01,2013-10-11 16:48:00,
2013-10-11 12:53:00,56.8,56.8,29.98,NNE,27,5.0,9.0,100,0.03,,CLR,0.47,151.00,VWS V14.01,2013-10-11 16:53:00,
2013-10-11 12:58:00,56.8,56.8,29.98,North,355,3.0,6.0,100,0.03,,CLR,0.47,153.00,VWS V14.01,2013-10-11 16:58:00,
2013-10-11 13:03:00,56.8,56.8,29.98,North,5,3.0,7.0,100,0.02,,CLR,0.47,165.00,VWS V14.01,2013-10-11 17:03:00,
2013-10-11 13:08:00,56.8,56.8,29.98,North,355,3.0,9.0,100,0.02,,CLR,0.47,148.00,VWS V14.01,2013-10-11 17:08:00,
2013-10-11 13:13:00,56.9,56.9,29.98,North,355,2.0,5.0,100,0.01,,CLR,0.47,132.00,VWS V14.01,2013-10-11 17:13:00,
2013-10-11 13:18:00,57.1,57.1,29.98,NNW,342,3.0,5.0,100,0.01,,CLR,0.47,91.00,VWS V14.01,2013-10-11 17:18:00,
2013-10-11 13:23:00,57.1,57.1,29.98,North,10,4.0,7.0,100,0.01,,CLR,0.47,76.00,VWS V14.01,2013-10-11 17:23:00,
2013-10-11 13:28:00,57.0,57.0,29.98,North,355,4.0,7.0,100,0.00,,CLR,0.47,77.00,VWS V14.01,2013-10-11 17:28:00,
2013-10-11 13:33:00,56.9,56.9,29.97,NNE,18,3.0,5.0,100,0.00,,CLR,0.47,90.00,VWS V14.01,2013-10-11 17:33:00,
2013-10-11 13:39:00,56.9,56.9,29.97,North,5,1.0,7.0,100,0.00,,CLR,0.47,107.00,VWS V14.01,2013-10-11 17:39:00,
2013-10-11 13:44:00,57.0,57.0,29.97,NNW,340,5.0,6.0,100,0.00,,CLR,0.47,142.00,VWS V14.01,2013-10-11 17:44:00,
2013-10-11 13:49:00,57.0,57.0,29.97,North,360,4.0,9.0,100,0.00,,CLR,0.47,116.00,VWS V14.01,2013-10-11 17:49:00,
2013-10-11 13:54:00,57.0,57.0,29.97,NNE,14,2.0,8.0,100,0.00,,CLR,0.47,97.00,VWS V14.01,2013-10-11 17:54:00,
2013-10-11 13:59:00,57.1,57.1,29.96,North,355,6.0,8.0,100,0.01,,CLR,0.48,90.00,VWS V14.01,2013-10-11 17:59:00,
2013-10-11 14:04:00,57.1,57.1,29.97,NNW,341,7.0,9.0,100,0.01,,CLR,0.48,69.00,VWS V14.01,2013-10-11 18:04:00,
2013-10-11 14:09:00,57.0,57.0,29.97,NNW,345,5.0,7.0,100,0.01,,CLR,0.48,58.00,VWS V14.01,2013-10-11 18:09:00,
2013-10-11 14:14:00,57.0,57.0,29.96,North,360,0.0,7.0,100,0.01,,CLR,0.48,44.00,VWS V14.01,2013-10-11 18:14:00,
2013-10-11 14:19:00,56.9,56.9,29.96,North,355,0.0,3.0,100,0.01,,CLR,0.48,33.00,VWS V14.01,2013-10-11 18:19:00,
2013-10-11 14:24:00,57.0,57.0,29.97,NNE,20,1.0,5.0,100,0.01,,CLR,0.48,37.00,VWS V14.01,2013-10-11 18:24:00,
2013-10-11 14:29:00,57.0,57.0,29.97,North,351,0.0,6.0,100,0.01,,CLR,0.48,46.00,VWS V14.01,2013-10-11 18:29:00,
2013-10-11 14:34:00,57.0,57.0,29.97,North,355,1.0,1.0,100,0.01,,CLR,0.48,58.00,VWS V14.01,2013-10-11 18:34:00,
2013-10-11 14:39:00,57.1,57.1,29.96,North,5,3.0,3.0,100,0.02,,CLR,0.49,70.00,VWS V14.01,2013-10-11 18:39:00,
2013-10-11 14:44:00,57.2,57.2,29.96,North,5,3.0,4.0,100,0.03,,CLR,0.50,93.00,VWS V14.01,2013-10-11 18:44:00,
2013-10-11 14:49:00,57.3,57.3,29.96,NNW,329,4.0,4.0,100,0.03,,CLR,0.50,118.00,VWS V14.01,2013-10-11 18:49:00,
2013-10-11 14:54:00,57.4,57.4,29.96,North,5,1.0,3.0,100,0.03,,CLR,0.50,169.00,VWS V14.01,2013-10-11 18:54:00,
2013-10-11 14:59:00,57.7,57.7,29.96,NNW,339,2.0,5.0,100,0.02,,CLR,0.50,104.00,VWS V14.01,2013-10-11 18:59:00,
2013-10-11 15:04:00,57.8,57.8,29.96,NE,34,3.0,6.0,100,0.02,,CLR,0.50,93.00,VWS V14.01,2013-10-11 19:04:00,
2013-10-11 15:10:00,57.8,57.8,29.96,NNE,19,0.0,3.0,100,0.03,,CLR,0.51,70.00,VWS V14.01,2013-10-11 19:10:00,
2013-10-11 15:15:00,57.9,57.9,29.96,NNW,342,1.0,4.0,100,0.03,,CLR,0.51,63.00,VWS V14.01,2013-10-11 19:15:00,
2013-10-11 15:20:00,57.9,57.9,29.96,North,10,0.0,1.0,100,0.05,,CLR,0.53,46.00,VWS V14.01,2013-10-11 19:20:00,
2013-10-11 15:25:00,58.0,58.0,29.96,NNW,346,4.0,5.0,100,0.05,,CLR,0.53,46.00,VWS V14.01,2013-10-11 19:25:00,
2013-10-11 15:30:00,57.9,57.9,29.96,North,355,4.0,4.0,100,0.05,,CLR,0.53,63.00,VWS V14.01,2013-10-11 19:30:00,
2013-10-11 15:35:00,57.9,57.9,29.96,North,355,0.0,3.0,100,0.05,,CLR,0.53,70.00,VWS V14.01,2013-10-11 19:35:00,
2013-10-11 15:40:00,58.0,58.0,29.96,NNW,334,0.0,6.0,100,0.05,,CLR,0.54,63.00,VWS V14.01,2013-10-11 19:40:00,
2013-10-11 15:45:00,58.0,58.0,29.96,North,360,3.0,4.0,100,0.04,,CLR,0.54,60.00,VWS V14.01,2013-10-11 19:45:00,
2013-10-11 15:50:00,58.1,58.1,29.96,North,360,0.0,4.0,100,0.04,,CLR,0.54,67.00,VWS V14.01,2013-10-11 19:50:00,
2013-10-11 15:55:00,58.1,58.1,29.96,North,355,3.0,4.0,100,0.04,,CLR,0.54,76.00,VWS V14.01,2013-10-11 19:55:00,
2013-10-11 16:01:00,58.1,58.1,29.96,North,10,3.0,7.0,100,0.04,,CLR,0.54,70.00,VWS V14.01,2013-10-11 20:01:00,
2013-10-11 16:06:00,58.2,58.2,29.95,North,10,1.0,4.0,100,0.04,,CLR,0.54,53.00,VWS V14.01,2013-10-11 20:06:00,
2013-10-11 16:11:00,58.2,58.2,29.96,NNW,347,3.0,7.0,100,0.03,,CLR,0.54,46.00,VWS V14.01,2013-10-11 20:11:00,
2013-10-11 16:16:00,58.2,58.2,29.96,NNE,27,0.0,6.0,100,0.03,,CLR,0.54,40.00,VWS V14.01,2013-10-11 20:16:00,
2013-10-11 16:21:00,58.1,58.1,29.96,NW,317,6.0,6.0,100,0.04,,CLR,0.56,47.00,VWS V14.01,2013-10-11 20:21:00,
2013-10-11 16:26:00,58.0,58.0,29.95,North,9,6.0,7.0,100,0.04,,CLR,0.57,47.00,VWS V14.01,2013-10-11 20:26:00,
2013-10-11 16:31:00,57.9,57.6,29.95,NW,325,4.0,9.0,99,0.04,,CLR,0.57,47.00,VWS V14.01,2013-10-11 20:31:00,
2013-10-11 16:36:00,57.9,57.6,29.96,North,349,0.0,6.0,99,0.04,,CLR,0.57,46.00,VWS V14.01,2013-10-11 20:36:00,
2013-10-11 16:41:00,57.9,57.6,29.96,North,10,2.0,7.0,99,0.04,,CLR,0.58,47.00,VWS V14.01,2013-10-11 20:41:00,
2013-10-11 16:47:00,57.9,57.9,29.95,NNW,342,4.0,6.0,100,0.04,,CLR,0.58,53.00,VWS V14.01,2013-10-11 20:47:00,
2013-10-11 16:52:00,57.9,57.9,29.96,North,5,4.0,6.0,100,0.04,,CLR,0.58,46.00,VWS V14.01,2013-10-11 20:52:00,
2013-10-11 16:57:00,58.0,58.0,29.96,NNE,20,4.0,7.0,100,0.04,,CLR,0.58,42.00,VWS V14.01,2013-10-11 20:57:00,
2013-10-11 17:02:00,58.0,58.0,29.96,North,360,5.0,7.0,100,0.04,,CLR,0.58,39.00,VWS V14.01,2013-10-11 21:02:00,
2013-10-11 17:07:00,58.0,58.0,29.96,North,355,2.0,6.0,100,0.04,,CLR,0.58,39.00,VWS V14.01,2013-10-11 21:07:00,
2013-10-11 17:12:00,58.1,58.1,29.96,North,355,8.0,10.0,100,0.04,,CLR,0.58,33.00,VWS V14.01,2013-10-11 21:12:00,
2013-10-11 17:17:00,58.0,58.0,29.96,North,5,4.0,9.0,100,0.04,,CLR,0.58,33.00,VWS V14.01,2013-10-11 21:17:00,
2013-10-11 17:22:00,58.1,58.1,29.96,North,11,4.0,8.0,100,0.04,,CLR,0.58,44.00,VWS V14.01,2013-10-11 21:22:00,
2013-10-11 17:27:00,58.1,58.1,29.96,North,5,3.0,8.0,100,0.02,,CLR,0.58,42.00,VWS V14.01,2013-10-11 21:27:00,
2013-10-11 17:33:00,58.1,58.1,29.96,NNE,18,6.0,10.0,100,0.01,,CLR,0.58,40.00,VWS V14.01,2013-10-11 21:33:00,
2013-10-11 17:38:00,58.2,58.2,29.96,North,5,6.0,9.0,100,0.01,,CLR,0.58,35.00,VWS V14.01,2013-10-11 21:38:00,
2013-10-11 17:43:00,58.2,58.2,29.96,NNW,342,6.0,7.0,100,0.00,,CLR,0.58,28.00,VWS V14.01,2013-10-11 21:43:00,
2013-10-11 17:48:00,58.2,58.2,29.96,NNW,344,1.0,8.0,100,0.00,,CLR,0.58,21.00,VWS V14.01,2013-10-11 21:48:00,
2013-10-11 17:53:00,58.2,58.2,29.97,North,360,4.0,8.0,100,0.00,,CLR,0.58,14.00,VWS V14.01,2013-10-11 21:53:00,
2013-10-11 17:58:00,58.2,58.2,29.96,North,9,3.0,5.0,100,0.00,,CLR,0.58,12.00,VWS V14.01,2013-10-11 21:58:00,
2013-10-11 18:03:00,58.2,58.2,29.97,North,360,1.0,7.0,100,0.00,,CLR,0.58,12.00,VWS V14.01,2013-10-11 22:03:00,
2013-10-11 18:08:00,58.2,58.2,29.97,NE,42,2.0,7.0,100,0.00,,CLR,0.58,12.00,VWS V14.01,2013-10-11 22:08:00,
2013-10-11 18:13:00,58.2,58.2,29.97,North,355,1.0,6.0,100,0.00,,CLR,0.58,12.00,VWS V14.01,2013-10-11 22:13:00,
2013-10-11 18:18:00,58.2,58.2,29.97,NNE,17,0.0,5.0,100,0.00,,CLR,0.58,12.00,VWS V14.01,2013-10-11 22:18:00,
2013-10-11 18:24:00,58.3,58.3,29.97,North,350,0.0,4.0,100,0.00,,CLR,0.58,7.00,VWS V14.01,2013-10-11 22:24:00,
2013-10-11 18:29:00,58.3,58.3,29.97,NNE,23,0.0,3.0,100,0.00,,CLR,0.58,5.00,VWS V14.01,2013-10-11 22:29:00,
2013-10-11 18:34:00,58.3,58.3,29.97,North,360,2.0,6.0,100,0.00,,CLR,0.58,0.00,VWS V14.01,2013-10-11 22:34:00,
2013-10-11 18:39:00,58.3,58.3,29.97,NNE,17,0.0,4.0,100,0.00,,CLR,0.58,0.00,VWS V14.01,2013-10-11 22:39:00,
2013-10-11 18:44:00,58.3,58.3,29.97,NNE,13,0.0,3.0,100,0.00,,CLR,0.58,0.00,VWS V14.01,2013-10-11 22:44:00,
2013-10-11 18:49:00,58.3,58.3,29.97,NNE,12,0.0,4.0,100,0.00,,CLR,0.58,0.00,VWS V14.01,2013-10-11 22:49:00,
2013-10-11 18:54:00,58.3,58.3,29.97,NNE,15,0.0,4.0,100,0.00,,CLR,0.58,0.00,VWS V14.01,2013-10-11 22:54:00,
2013-10-11 18:59:00,58.3,58.3,29.98,North,5,0.0,4.0,100,0.00,,CLR,0.58,0.00,VWS V14.01,2013-10-11 22:59:00,
2013-10-11 19:04:00,58.4,58.4,29.98,NNE,12,0.0,2.0,100,0.00,,CLR,0.58,0.00,VWS V14.01,2013-10-11 23:04:00,
2013-10-11 19:09:00,58.4,58.4,29.98,NNE,15,0.0,0.0,100,0.00,,CLR,0.58,0.00,VWS V14.01,2013-10-11 23:09:00,
2013-10-11 19:14:00,58.4,58.4,29.98,North,10,2.0,2.0,100,0.00,,CLR,0.58,0.00,VWS V14.01,2013-10-11 23:14:00,
2013-10-11 19:19:00,58.4,58.4,29.98,North,9,0.0,1.0,100,0.00,,CLR,0.58,0.00,VWS V14.01,2013-10-11 23:19:00,
2013-10-11 19:24:00,58.4,58.4,29.98,North,9,0.0,0.0,100,0.00,,CLR,0.58,0.00,VWS V14.01,2013-10-11 23:24:00,
2013-10-11 19:29:00,58.4,58.4,29.98,North,9,1.0,1.0,100,0.00,,CLR,0.58,0.00,VWS V14.01,2013-10-11 23:29:00,
2013-10-11 19:34:00,58.4,58.4,29.98,NNW,335,0.0,1.0,100,0.00,,CLR,0.58,0.00,VWS V14.01,2013-10-11 23:34:00,
2013-10-11 19:40:00,58.5,58.5,29.98,NNW,337,0.0,0.0,100,0.00,,CLR,0.58,0.00,VWS V14.01,2013-10-11 23:40:00,
2013-10-11 19:45:00,58.5,58.5,29.98,North,360,0.0,1.0,100,0.00,,CLR,0.58,0.00,VWS V14.01,2013-10-11 23:45:00,
2013-10-11 19:50:00,58.5,58.5,29.98,NNE,22,0.0,4.0,100,0.00,,CLR,0.58,0.00,VWS V14.01,2013-10-11 23:50:00,
2013-10-11 19:55:00,58.6,58.6,29.98,North,349,2.0,4.0,100,0.00,,CLR,0.58,0.00,VWS V14.01,2013-10-11 23:55:00,
2013-10-11 20:00:00,58.6,58.6,29.98,North,355,3.0,4.0,100,0.00,,CLR,0.58,0.00,VWS V14.01,2013-10-12 00:00:00,
2013-10-11 20:05:00,58.6,58.6,29.98,NNE,13,0.0,6.0,100,0.00,,CLR,0.58,0.00,VWS V14.01,2013-10-12 00:05:00,
2013-10-11 20:10:00,58.7,58.7,29.98,NNE,22,0.0,0.0,100,0.00,,CLR,0.58,0.00,VWS V14.01,2013-10-12 00:10:00,
2013-10-11 20:15:00,58.7,58.7,29.99,NNE,23,0.0,1.0,100,0.00,,CLR,0.58,0.00,VWS V14.01,2013-10-12 00:15:00,
2013-10-11 20:20:00,58.8,58.8,29.99,North,355,0.0,1.0,100,0.00,,CLR,0.58,0.00,VWS V14.01,2013-10-12 00:20:00,
2013-10-11 20:25:00,58.8,58.8,29.98,NNW,345,0.0,0.0,100,0.00,,CLR,0.58,0.00,VWS V14.01,2013-10-12 00:25:00,
2013-10-11 20:30:00,58.8,58.8,29.98,North,360,0.0,0.0,100,0.00,,CLR,0.58,0.00,VWS V14.01,2013-10-12 00:30:00,
2013-10-11 20:35:00,58.8,58.8,29.99,North,5,0.0,3.0,100,0.00,,CLR,0.58,0.00,VWS V14.01,2013-10-12 00:35:00,
2013-10-11 20:41:00,58.9,58.9,29.99,North,5,0.0,1.0,100,0.00,,CLR,0.58,0.00,VWS V14.01,2013-10-12 00:41:00,
2013-10-11 20:46:00,59.0,59.0,29.99,NNE,13,0.0,1.0,100,0.00,,CLR,0.58,0.00,VWS V14.01,2013-10-12 00:46:00,
2013-10-11 20:51:00,59.0,59.0,29.99,North,350,1.0,2.0,100,0.01,,CLR,0.59,0.00,VWS V14.01,2013-10-12 00:51:00,
2013-10-11 20:56:00,59.0,59.0,29.99,North,360,0.0,5.0,100,0.01,,CLR,0.59,0.00,VWS V14.01,2013-10-12 00:56:00,
2013-10-11 21:01:00,59.0,59.0,29.99,North,350,0.0,4.0,100,0.02,,CLR,0.60,0.00,VWS V14.01,2013-10-12 01:01:00,
2013-10-11 21:06:00,59.0,59.0,29.99,NNW,344,4.0,5.0,100,0.02,,CLR,0.60,0.00,VWS V14.01,2013-10-12 01:06:00,
2013-10-11 21:11:00,59.0,59.0,29.99,NNW,346,0.0,1.0,100,0.02,,CLR,0.60,0.00,VWS V14.01,2013-10-12 01:11:00,
2013-10-11 21:17:00,59.0,59.0,29.99,NNW,344,1.0,3.0,100,0.02,,CLR,0.60,0.00,VWS V14.01,2013-10-12 01:17:00,
2013-10-11 21:22:00,59.0,59.0,29.99,North,5,3.0,4.0,100,0.02,,CLR,0.60,0.00,VWS V14.01,2013-10-12 01:22:00,
2013-10-11 21:27:00,59.0,59.0,29.99,North,350,2.0,3.0,100,0.02,,CLR,0.60,0.00,VWS V14.01,2013-10-12 01:27:00,
2013-10-11 21:32:00,59.0,59.0,29.99,NNW,330,1.0,3.0,100,0.02,,CLR,0.60,0.00,VWS V14.01,2013-10-12 01:32:00,
2013-10-11 21:37:00,59.0,59.0,30.00,NNW,332,2.0,3.0,100,0.02,,CLR,0.60,0.00,VWS V14.01,2013-10-12 01:37:00,
2013-10-11 21:42:00,59.0,59.0,30.00,NNW,331,0.0,2.0,100,0.02,,CLR,0.60,0.00,VWS V14.01,2013-10-12 01:42:00,
2013-10-11 21:47:00,59.0,59.0,29.99,NNW,336,4.0,6.0,100,0.05,,CLR,0.63,0.00,VWS V14.01,2013-10-12 01:47:00,
2013-10-11 21:52:00,59.0,59.0,29.99,North,350,2.0,5.0,100,0.05,,CLR,0.63,0.00,VWS V14.01,2013-10-12 01:52:00,
2013-10-11 21:58:00,59.0,59.0,30.00,North,349,4.0,5.0,100,0.05,,CLR,0.64,0.00,VWS V14.01,2013-10-12 01:58:00,
2013-10-11 22:03:00,59.0,59.0,30.00,North,355,3.0,4.0,100,0.04,,CLR,0.64,0.00,VWS V14.01,2013-10-12 02:03:00,
2013-10-11 22:08:00,59.0,59.0,30.00,NNW,334,3.0,4.0,100,0.05,,CLR,0.65,0.00,VWS V14.01,2013-10-12 02:08:00,
2013-10-11 22:13:00,59.1,59.1,30.00,NNW,343,0.0,4.0,100,0.06,,CLR,0.66,0.00,VWS V14.01,2013-10-12 02:13:00,
2013-10-11 22:18:00,59.1,59.1,30.00,NNW,344,0.0,0.0,100,0.06,,CLR,0.66,0.00,VWS V14.01,2013-10-12 02:18:00,
2013-10-11 22:23:00,59.1,59.1,30.00,NNW,344,0.0,0.0,100,0.07,,CLR,0.67,0.00,VWS V14.01,2013-10-12 02:23:00,
2013-10-11 22:29:00,59.2,59.2,30.00,NNW,344,0.0,0.0,100,0.07,,CLR,0.67,0.00,VWS V14.01,2013-10-12 02:29:00,
2013-10-11 22:34:00,59.2,59.2,30.00,NNW,344,0.0,0.0,100,0.07,,CLR,0.67,0.00,VWS V14.01,2013-10-12 02:34:00,
2013-10-11 22:39:00,59.3,59.3,30.00,NNW,344,0.0,0.0,100,0.07,,CLR,0.67,0.00,VWS V14.01,2013-10-12 02:39:00,
2013-10-11 22:44:00,59.3,59.3,30.00,NNW,344,0.0,1.0,100,0.08,,CLR,0.68,0.00,VWS V14.01,2013-10-12 02:44:00,
2013-10-11 22:49:00,59.3,59.3,30.00,NNW,344,0.0,0.0,100,0.05,,CLR,0.68,0.00,VWS V14.01,2013-10-12 02:49:00,
2013-10-11 22:54:00,59.3,59.3,30.00,NNW,344,0.0,0.0,100,0.04,,CLR,0.68,0.00,VWS V14.01,2013-10-12 02:54:00,
2013-10-11 22:59:00,59.4,59.4,30.00,NNW,344,0.0,2.0,100,0.04,,CLR,0.68,0.00,VWS V14.01,2013-10-12 02:59:00,
2013-10-11 23:04:00,59.4,59.4,30.00,NNW,344,0.0,0.0,100,0.04,,CLR,0.68,0.00,VWS V14.01,2013-10-12 03:04:00,
2013-10-11 23:09:00,59.4,59.4,30.00,NNW,344,1.0,4.0,100,0.03,,CLR,0.68,0.00,VWS V14.01,2013-10-12 03:09:00,
2013-10-11 23:14:00,59.4,59.4,30.00,NNW,344,0.0,1.0,100,0.02,,CLR,0.68,0.00,VWS V14.01,2013-10-12 03:14:00,
2013-10-11 23:20:00,59.4,59.4,30.00,NNW,344,0.0,0.0,100,0.03,,CLR,0.69,0.00,VWS V14.01,2013-10-12 03:20:00,
2013-10-11 23:25:00,59.5,59.5,30.00,NNE,17,0.0,0.0,100,0.03,,CLR,0.70,0.00,VWS V14.01,2013-10-12 03:25:00,
2013-10-11 23:30:00,59.5,59.5,30.00,NNE,17,0.0,0.0,100,0.03,,CLR,0.70,0.00,VWS V14.01,2013-10-12 03:30:00,
2013-10-11 23:35:00,59.5,59.5,30.00,NNE,17,0.0,0.0,100,0.03,,CLR,0.70,0.00,VWS V14.01,2013-10-12 03:35:00,
2013-10-11 23:40:00,59.5,59.5,30.00,NNE,17,0.0,1.0,100,0.03,,CLR,0.70,0.00,VWS V14.01,2013-10-12 03:40:00,
2013-10-11 23:45:00,59.6,59.6,30.00,NNE,17,0.0,1.0,100,0.02,,CLR,0.70,0.00,VWS V14.01,2013-10-12 03:45:00,
2013-10-11 23:50:00,59.6,59.6,30.00,West,277,0.0,0.0,100,0.02,,CLR,0.70,0.00,VWS V14.01,2013-10-12 03:50:00,
2013-10-11 23:56:00,59.6,59.6,30.00,West,276,0.0,0.0,100,0.03,,CLR,0.71,0.00,VWS V14.01,2013-10-12 03:56:00,